Overview Statistics Trail Chart Weather Telemetry Raw packets
 

This is the latest recevied weather packets stored in our database for station/object IU5JAE-13. If no packets are shown the sender has not sent any weather packets the latest 10 day(s).

<< 8 9 10 11 12 13 14 >>
Time Temp. Humidity Pressure Rain* Wind** Luminosity Snow
1788570924 20° C 66% 1020.3 hPa 0 mm - 0 W/m² -
1788570321 20.56° C 64% 1020.3 hPa 0 mm - 0 W/m² -
1788569719 20° C 65% 1020.1 hPa 0 mm - 0 W/m² -
1788569117 20° C 64% 1020.2 hPa 0 mm - 0 W/m² -
1788568534 20° C 67% 1020.4 hPa 0 mm - 0 W/m² -
1788567932 19.44° C 68% 1020.4 hPa 0 mm - 0 W/m² -
1788567329 20° C 68% 1020.6 hPa 0 mm - 0 W/m² -
1788566727 20° C 67% 1020.7 hPa 0 mm - 0 W/m² -
1788566124 20° C 67% 1020.7 hPa 0 mm - 0 W/m² -
1788565522 20° C 67% 1020.8 hPa 0 mm - 0 W/m² -
1788564920 20° C 67% 1021 hPa 0 mm - 0 W/m² -
1788564317 20.56° C 64% 1020.9 hPa 0 mm - 0 W/m² -
1788563735 20.56° C 66% 1020.9 hPa 0 mm - 0 W/m² -
1788563132 20.56° C 65% 1021 hPa 0 mm - 0 W/m² -
1788562530 20.56° C 66% 1021.1 hPa 0 mm - 0 W/m² -
1788561928 21.11° C 67% 1021 hPa 0 mm - 0 W/m² -
1788561325 21.11° C 65% 1021 hPa 0 mm - 0 W/m² -
1788560723 21.11° C 63% 1020.9 hPa 0 mm - 0 W/m² -
1788560121 21.67° C 63% 1021.1 hPa 0 mm - 0 W/m² -
1788559518 21.67° C 62% 1021 hPa 0 mm - 0 W/m² -
1788558916 21.67° C 64% 1021.1 hPa 0 mm - 0 W/m² -
1788558333 21.67° C 66% 1021 hPa 0 mm - 0 W/m² -
1788557731 21.11° C 66% 1021.1 hPa 0 mm - 0 W/m² -
1788557128 21.67° C 66% 1021.1 hPa 0 mm - 0 W/m² -
1788556526 21.67° C 66% 1021.2 hPa 0 mm - 0 W/m² -

* Rain latest hour (hover to see other rain measurements)
** Current wind speed in m/s (hover to see current wind gust speed)